Location: Feydey
(46.3431°N, 7.0106°E)
Time: 09:21:52
(UTC+00:00)

BREEZE-M DEB (TANK) - Pass Details

Date: 20 June 2021
Orbit: 320 x 14773 km, 49.5° (Epoch: 04 August)

Event Time Altitude Azimuth Distance (km) Brightness Sun altitude
Rises 19:58:38 0° 226° (SW) 2,076 5.8 -5.0°
Reaches altitude 10° 20:00:19 10° 216° (SW) 1,234 4.6 -5.2°
Maximum altitude 20:02:27 38° 144° (SE) 608 2.6 -5.5°
Drops below altitude 10° 20:05:57 10° 73° (ENE) 2,032 5.4 -5.9°
Sets 20:09:41 0° 67° (ENE) 3,891 6.9 -6.4°
